Weather History for RPMZ - October, 2013

Change the Weather History Date:

Wednesday, October 23, 2013

  Actual Average Record
Temperature  
Mean Temperature 84 °F -  
Max Temperature 92 °F 89 °F - ()
Min Temperature 75 °F 74 °F - ()
Cooling Degree Days 18    
Growing Degree Days 34 (Base 50)    
Moisture  
Dew Point 76 °F    
Average Humidity 77    
Maximum Humidity 94    
Minimum Humidity 62    
Precipitation  
Precipitation 0.00 in 0.15 in - ()
Sea Level Pressure  
Sea Level Pressure 29.81 in    
Wind  
Wind Speed 2 mph ()    
Max Wind Speed 9 mph    
Max Gust Speed -    
Visibility 6.3 miles    
Events      
T = Trace of Precipitation, MM = Missing Value Source: Averaged Metar Reports

Daily Weather History Graph

Daily Weather History Graph

Search for Another Location

Airport or City:

Trip Planner

Search our weather history database for the weather conditions in past years. The results will help you decide how hot, cold, wet, or windy it might be!

Date:

Astronomy

Oct. 23, 2013 Rise Set
Actual Time 5:38 AM PHT 5:33 PM PHT
Civil Twilight 5:17 AM PHT 5:55 PM PHT
Nautical Twilight 4:52 AM PHT 6:19 PM PHT
Astronomical Twilight 4:27 AM PHT 6:44 PM PHT
Moon 9:03 PM PHT (10/23) 8:58 AM PHT (10/23)
Length of Visible Light 12h 37m
Length of Day
11h 55m
Waning Gibbous, 83% of the Moon is Illuminated
Oct 23
Waning Gibbous
Oct 27
Last Quarter
Nov 3
New
Nov 10
First Quarter
Nov 17
Full

Hourly Weather History & Observations

Time (PHT) Temp. Heat Index Dew Point Humidity Pressure Visibility Wind Dir Wind Speed Gust Speed Precip Events Conditions
2:00 AM 78 °F - 74 °F 85% 29.82 in 6 mi Calm Calm - -   Haze
2:00 AM 77.0 °F - 75.2 °F 94% 29.83 in 6.2 mi Calm Calm - N/A   Mostly Cloudy
5:00 AM 76 °F - 73 °F 88% 29.80 in 6 mi Calm Calm - -   Haze
5:00 AM 77.0 °F - 73.4 °F 89% 29.80 in 6.2 mi Calm Calm - N/A   Scattered Clouds
6:00 AM 75.2 °F - 73.4 °F 94% 29.83 in 6.2 mi Calm Calm - N/A   Mostly Cloudy
7:00 AM 77.0 °F - 75.2 °F 94% 29.83 in 6.2 mi Calm Calm - N/A   Mostly Cloudy
8:00 AM 82 °F - 77 °F 80% 29.83 in 7 mi Calm Calm - -   Haze
8:00 AM 82.4 °F 90.9 °F 77.0 °F 84% 10.11 in 6.2 mi Calm Calm - N/A   Partly Cloudy
9:00 AM 86.0 °F 96.9 °F 77.0 °F 74% 29.86 in 6.2 mi South 2.3 mph - N/A   Mostly Cloudy
10:00 AM 87.8 °F 99.7 °F 77.0 °F 70% 29.86 in 6.2 mi SW 4.6 mph - N/A   Scattered Clouds
11:00 AM 88 °F - 77 °F 64% 29.80 in 7 mi WSW 6.7 mph - -   Haze
11:00 AM 87.8 °F 99.7 °F 77.0 °F 70% 29.83 in 6.2 mi WSW 6.9 mph - N/A   Scattered Clouds
12:00 PM 87.8 °F 99.7 °F 77.0 °F 70% 29.83 in 6.2 mi WSW 9.2 mph - N/A   Scattered Clouds
1:00 PM 89.6 °F 102.2 °F 77.0 °F 66% 29.80 in 6.2 mi WSW 9.2 mph - N/A   Scattered Clouds
2:00 PM 89 °F - 78 °F 63% 29.75 in 7 mi West 6.7 mph - -   Haze
2:00 PM 89.6 °F 104.7 °F 78.8 °F 70% 29.77 in 6.2 mi West 6.9 mph - N/A   Scattered Clouds
3:00 PM 89.6 °F 102.2 °F 77.0 °F 66% 29.77 in 6.2 mi West 6.9 mph - N/A   Scattered Clouds
4:00 PM 89.6 °F 99.8 °F 75.2 °F 62% 29.77 in 6.2 mi West 6.9 mph - N/A   Scattered Clouds
5:00 PM 88 °F - 77 °F 64% 29.77 in 6 mi ENE 2.2 mph - -   Haze
5:00 PM 87.8 °F 99.7 °F 77.0 °F 70% 29.80 in 6.2 mi ENE 2.3 mph - N/A   Partly Cloudy
6:00 PM 86.0 °F 96.9 °F 77.0 °F 74% 29.80 in 6.2 mi West 2.3 mph - N/A   Mostly Cloudy
8:00 PM 82 °F - 76 °F 78% 29.83 in 6 mi NNW 2.2 mph - -   Haze
8:00 PM 82.4 °F 90.9 °F 77.0 °F 84% 29.83 in 6.2 mi NNW 2.3 mph - N/A   Scattered Clouds
11:00 PM 79 °F - 76 °F 87% 29.85 in 6 mi Calm Calm - -   Haze
11:00 PM 78.8 °F - 75.2 °F 89% 29.86 in 6.2 mi Calm Calm - N/A   Scattered Clouds